Theta_e
325 325 325 324 324 324 325 324 327 327 327 327 326 324 322 322 321 315 304 313 315 324 321 312 310 310 312 310 310 308 299 297 299 299 299 303 300 302 303 303 302 307 309 319 330
325 325 325 325 324 324 324 324 326 326 326 326 324 323 322 321 311 306 318 325 325 328 309 307 305 307 304 306 306 302 299 300 303 301 301 303 302 301 298 301 302 306 312 328 329
324 324 324 324 324 324 324 325 325 325 324 324 323 322 321 318 304 303 326 326 324 326 312 309 309 307 302 304 303 302 299 300 302 303 305 303 301 303 299 298 301 304 311 325 326
323 323 323 324 323 324 324 324 324 324 323 323 322 321 320 314 293 311 323 328 326 321 312 307 307 303 301 299 302 297 301 301 303 302 302 302 303 300 301 300 305 306 314 322 324
321 321 322 323 323 323 323 323 324 323 322 322 322 321 314 302 303 315 323 326 322 315 307 305 303 302 299 300 300 298 297 300 301 300 300 304 301 300 300 303 304 308 315 318 322
321 320 320 321 322 323 323 323 324 323 322 321 321 321 310 296 310 316 315 316 312 308 306 306 304 305 301 300 298 299 299 298 298 299 299 300 298 298 301 303 302 304 309 314 317
320 320 320 320 321 322 322 323 323 322 321 320 321 314 303 302 311 314 312 309 310 308 305 306 306 303 302 300 300 299 296 296 297 298 296 298 294 295 298 302 302 301 302 307 313
320 319 319 319 320 321 322 322 321 321 321 321 322 312 299 310 312 311 311 308 309 309 308 307 306 305 302 301 299 294 294 289 296 297 297 295 290 298 300 298 298 298 298 300 305
318 318 319 319 319 320 321 321 320 320 320 321 312 308 297 311 306 309 310 306 306 307 307 307 307 302 299 294 291 293 286 290 291 298 296 294 291 296 298 297 296 297 298 300 302
317 317 318 319 318 319 320 320 320 319 317 314 310 300 301 299 307 307 308 308 305 304 302 302 299 295 294 290 284 288 287 290 290 293 293 291 292 294 295 295 295 296 297 298 298
318 318 318 318 319 320 317 313 306 303 306 297 299 298 300 306 308 305 307 305 304 301 294 298 292 288 291 293 294 291 290 289 292 294 291 291 292 294 296 295 295 296 297 298 299
317 317 318 318 319 319 313 303 302 304 296 303 303 301 304 306 299 302 306 299 298 292 296 293 289 294 297 295 293 290 289 287 290 293 291 290 291 295 296 295 296 297 297 298 299
317 317 317 318 318 315 308 306 313 307 294 297 302 300 301 304 298 299 302 300 296 293 293 290 292 297 295 293 291 289 288 288 288 291 290 288 287 290 294 296 296 297 299 299 299
317 317 317 317 312 311 306 312 315 312 289 290 294 299 303 303 297 304 303 300 296 292 293 292 294 293 292 292 292 287 292 291 290 287 281 288 279 287 291 292 293 295 296 298 297
316 317 317 317 310 307 309 314 315 304 277 293 294 304 303 298 297 298 303 299 293 293 293 289 290 291 291 292 293 289 293 291 289 286 284 284 281 285 289 289 292 293 294 296 296
316 316 316 314 312 311 313 314 308 285 276 288 294 294 294 295 296 297 297 299 298 293 293 291 293 293 292 293 293 294 291 290 287 285 279 285 283 283 287 290 290 291 293 295 296
316 316 314 314 306 312 313 305 286 278 292 288 288 293 292 291 293 293 292 290 288 284 284 289 288 291 293 290 292 291 287 279 278 277 277 284 282 286 291 291 290 292 293 294 297
315 315 314 313 313 312 306 292 278 284 287 294 291 292 288 291 291 292 290 287 291 289 286 283 281 288 292 291 288 288 287 281 275 276 277 281 278 285 292 292 292 294 293 297 297
308 313 311 312 312 309 296 282 282 287 291 291 290 287 287 290 290 290 289 288 290 291 285 284 284 291 292 293 292 287 285 289 282 275 277 281 284 290 292 292 291 291 293 294 296
301 308 308 312 311 304 291 285 288 294 293 293 286 289 284 287 287 287 287 291 291 293 293 289 283 289 291 292 292 290 292 283 282 273 273 278 279 282 287 290 291 291 291 294 297
299 300 308 311 307 297 285 287 291 296 296 292 290 288 288 287 288 287 287 291 294 292 294 290 288 285 289 286 286 286 286 287 287 284 277 274 278 286 288 291 291 291 293 294 295
298 286 308 309 291 291 287 291 295 295 298 295 296 293 290 290 287 287 287 290 295 295 289 292 289 281 284 289 292 291 288 288 282 279 280 279 282 290 290 292 292 292 296 296 296
291 290 302 304 284 285 291 291 294 293 294 294 293 295 295 290 286 289 290 295 295 294 291 292 286 276 279 285 288 287 288 288 288 284 279 276 282 290 291 288 292 293 295 295 295
289 284 288 294 294 290 289 289 290 296 295 297 295 297 293 291 292 288 290 294 295 294 297 295 288 284 280 281 287 283 286 288 287 281 283 281 285 286 289 290 291 293 294 294 294
285 284 285 283 284 291 292 291 288 290 296 296 294 294 292 289 289 289 291 292 294 295 294 291 281 285 287 287 286 285 285 286 285 286 282 286 286 290 289 291 292 294 295 295 294
285 285 286 285 289 290 291 289 288 291 292 291 291 294 294 290 291 287 291 291 290 291 291 292 279 284 280 286 286 281 287 287 287 288 287 288 286 293 292 291 292 295 295 295 295
288 288 286 286 287 287 288 290 290 293 295 296 295 294 293 294 297 296 297 296 294 291 289 288 282 278 276 285 284 280 285 287 288 289 288 284 289 292 291 292 292 294 296 296 296
Wind_Speed
21 19 21 19 18 15 13 12 11 9 8 7 7 6 4 4 4 4 7 3 4 5 5 2 6 3 1 3 1 4 2 4 3 9 7 9 6 1 2 7 3 3 5 11 14
21 19 19 20 18 17 14 13 11 8 7 8 8 7 7 6 3 9 5 5 7 7 3 4 4 3 2 2 2 2 2 6 5 1 9 10 9 8 4 8 5 7 4 14 11
21 20 17 18 18 18 17 13 11 9 8 7 8 8 6 6 3 7 15 12 8 8 2 7 5 1 3 3 4 4 3 1 6 7 10 9 5 8 5 6 10 13 10 13 13
20 19 17 16 17 17 16 14 12 10 10 8 8 7 5 4 6 4 5 11 10 5 6 5 6 6 5 5 5 4 3 6 3 4 4 9 6 4 6 3 5 7 16 12 14
18 17 17 16 17 17 16 13 13 10 10 10 10 9 4 5 5 3 6 11 9 7 10 9 7 7 6 7 2 2 3 4 7 3 2 6 3 1 6 8 7 10 13 12 12
16 17 16 16 16 17 17 14 13 11 10 10 9 8 2 9 2 5 8 6 7 7 7 6 6 9 5 10 7 4 5 6 2 5 3 1 3 3 8 10 9 8 9 10 10
17 19 17 16 16 16 16 15 13 10 10 10 10 6 5 5 2 3 6 6 6 5 5 5 6 1 4 1 4 0 4 3 4 5 2 3 0 7 2 6 9 9 8 9 11
18 19 18 18 16 15 15 15 13 10 9 8 7 5 5 2 5 3 4 4 5 1 3 5 2 2 2 2 3 5 4 4 6 6 2 3 6 10 10 9 8 9 9 9 10
20 18 18 18 16 15 16 15 12 9 10 9 6 6 4 2 5 6 5 6 8 5 3 2 2 2 2 4 2 5 4 7 2 7 3 5 5 3 7 8 8 8 9 9 9
23 22 21 21 20 19 20 15 11 11 7 5 5 3 5 5 6 7 1 7 5 9 5 5 4 4 3 4 6 5 5 6 6 5 1 4 10 2 5 5 8 9 8 7 8
22 23 23 22 23 24 20 10 7 3 6 4 5 4 4 5 5 5 6 7 5 5 6 6 4 6 8 9 10 3 8 5 3 2 2 7 8 10 8 7 9 8 7 7 9
22 27 26 26 25 27 15 6 13 7 7 8 4 5 3 4 4 9 5 7 7 8 9 4 8 10 9 7 7 3 2 2 5 5 2 5 9 10 8 7 9 10 10 10 8
23 25 30 28 29 18 18 11 2 7 5 4 3 4 3 3 3 13 9 5 8 11 13 9 8 12 11 5 6 4 3 3 3 4 3 4 8 9 11 14 10 10 10 9 9
25 26 28 30 21 16 18 7 5 4 3 7 7 5 5 2 3 5 8 3 6 12 9 6 4 12 7 6 5 5 7 3 8 3 4 5 6 4 8 8 8 11 11 12 9
27 28 32 31 13 15 13 8 6 4 5 13 11 7 11 8 10 3 2 2 7 7 7 5 8 13 10 10 10 3 5 6 4 3 5 5 1 8 4 8 10 11 10 9 7
29 29 32 20 11 16 13 9 6 4 9 10 7 14 10 10 3 4 4 2 2 2 2 3 3 4 6 4 8 8 8 7 2 3 4 8 7 6 6 9 5 1 5 7 6
30 33 28 15 14 19 15 8 7 10 8 10 10 15 19 13 8 8 13 9 8 8 6 5 1 3 2 8 6 6 6 3 1 1 7 4 6 10 5 3 3 6 8 8 7
23 29 26 12 19 22 12 9 10 14 17 5 12 17 16 19 7 9 13 13 13 7 10 10 6 9 4 6 10 11 10 8 9 5 5 4 9 8 9 5 7 6 7 7 7
16 13 12 10 20 19 19 16 16 13 19 8 17 17 14 17 11 8 14 14 18 17 8 9 5 6 13 3 11 6 11 3 7 2 4 7 7 8 6 6 6 6 6 6 7
2 11 14 25 21 18 18 22 15 10 23 17 9 11 17 24 13 18 17 14 11 22 8 4 5 3 3 3 5 6 5 4 1 5 4 7 6 7 3 8 7 8 10 10 8
1 5 14 26 17 14 22 20 15 11 14 17 10 10 12 23 15 16 11 7 24 19 15 2 7 2 5 7 10 3 4 6 5 6 8 2 8 2 2 10 11 10 9 8 7
4 1 14 19 15 13 19 22 12 12 7 12 3 7 15 19 17 15 16 14 16 16 23 10 6 5 7 1 8 12 9 14 7 7 3 4 11 2 7 6 6 7 7 7 9
6 4 2 23 13 19 10 21 14 16 8 15 11 7 8 15 11 16 12 4 8 18 19 13 5 4 4 3 3 6 6 7 8 3 7 6 15 4 6 3 2 7 7 6 6
1 3 1 3 1 19 14 25 16 7 12 8 8 7 12 16 13 17 9 1 5 8 11 15 4 15 18 7 10 6 8 10 11 5 20 9 20 6 5 7 6 6 8 8 8
2 2 1 4 5 17 19 25 23 13 7 13 9 14 11 10 19 6 16 4 5 5 6 9 8 5 19 4 4 6 15 14 16 22 13 26 19 25 8 11 10 9 8 9 9
1 2 2 3 12 14 24 19 32 17 18 23 13 15 12 7 13 8 13 7 6 2 7 3 2 6 8 4 4 2 8 20 24 25 20 21 15 25 8 6 9 12 11 9 9
1 1 1 3 8 12 15 17 31 24 12 14 17 15 17 15 2 9 9 12 10 11 10 9 8 5 9 8 6 5 30 10 14 21 20 22 33 8 9 7 7 8 11 13 9
Wind_Direction
196 194 179 180 183 191 200 215 210 211 198 178 156 156 155 153 137 197 214 192 177 240 119 348 254 176 265 271 278 319 291 213 220 149 130 146 123 292 16 123 120 84 60 120 128
193 194 187 177 183 180 190 202 203 201 194 160 160 158 155 192 199 234 212 196 186 151 119 223 197 162 241 247 223 233 267 220 184 130 143 167 146 140 148 132 128 97 71 116 120
194 188 189 181 180 180 177 182 186 180 180 160 159 151 170 200 192 239 181 190 195 171 202 263 235 212 256 17 240 227 250 165 37 35 136 165 145 153 176 176 177 167 162 140 133
192 185 185 182 181 179 170 173 173 174 163 154 156 147 165 247 205 88 114 174 159 182 219 201 233 183 227 209 243 263 338 347 86 21 53 147 150 166 222 125 68 122 156 150 155
185 186 180 180 178 172 162 169 163 172 164 160 156 157 156 223 264 107 102 139 144 185 201 202 201 191 226 202 175 275 89 1 43 94 23 97 164 159 214 125 78 95 147 164 167
186 183 179 174 170 169 160 169 156 169 163 163 164 156 255 226 84 137 118 138 160 179 196 213 218 215 233 255 173 230 136 103 184 104 29 150 98 41 235 142 130 138 167 173 183
194 177 181 171 167 159 156 152 150 163 158 166 163 207 228 225 95 143 156 157 151 196 188 213 311 213 309 35 63 360 109 148 197 162 109 289 171 237 339 124 165 176 199 193 192
198 175 169 171 164 150 142 137 135 153 148 155 159 227 246 89 105 176 184 109 142 172 41 93 316 33 21 85 161 173 236 175 158 130 128 103 255 219 185 158 206 200 205 205 210
190 175 167 170 151 146 135 127 129 149 145 139 147 248 220 149 170 179 198 154 133 109 66 134 164 149 146 159 153 223 180 211 159 195 108 176 258 293 129 161 218 236 226 197 193
200 178 169 160 151 143 124 121 133 129 148 157 275 210 184 195 136 141 183 166 138 132 116 179 155 149 214 191 192 166 224 220 156 196 94 199 263 237 202 225 232 236 229 235 202
193 177 166 158 150 138 122 127 129 165 198 163 184 271 125 71 119 171 177 177 119 158 145 195 162 192 191 210 238 12 196 172 150 56 185 225 254 256 232 204 232 253 259 236 219
199 184 166 159 149 142 140 207 165 149 161 263 309 211 358 311 124 157 173 166 157 176 137 120 208 199 206 203 245 255 266 139 50 114 139 274 247 255 258 242 213 217 236 236 228
190 188 168 158 149 152 164 194 9 153 129 161 211 206 167 217 189 175 184 187 178 187 177 172 194 203 196 189 170 220 198 224 95 158 270 323 281 241 247 231 231 231 225 242 220
182 182 172 157 154 165 181 141 57 66 122 178 212 220 144 240 282 154 207 178 193 201 183 230 181 189 142 171 146 187 219 274 120 111 245 191 279 270 231 211 209 227 224 227 237
179 179 170 163 142 175 154 98 79 16 172 159 165 158 148 178 130 233 346 75 180 191 151 196 166 154 168 183 172 196 147 159 137 204 305 212 276 263 206 221 227 224 224 229 219
184 175 170 178 153 156 122 105 83 107 227 173 137 165 151 194 119 111 157 316 318 151 72 87 310 156 161 130 160 134 84 72 78 225 267 208 200 243 205 212 229 182 159 133 125
180 175 173 174 162 145 122 154 148 204 167 172 179 178 169 169 149 174 177 180 159 136 177 116 186 54 108 91 100 133 136 108 256 212 224 6 263 233 252 292 185 168 153 157 142
188 165 175 175 146 144 142 157 191 178 206 158 154 156 188 152 176 177 165 189 218 207 156 170 192 155 199 172 167 192 169 163 184 194 224 1 241 254 228 98 151 113 123 130 145
326 182 176 158 149 151 150 182 204 171 196 128 140 156 189 182 143 160 194 200 194 196 187 184 221 100 164 151 138 206 228 148 107 2 57 219 267 299 221 239 199 177 154 189 185
329 179 175 153 158 163 164 202 195 168 179 142 152 177 184 182 174 184 180 199 196 204 209 148 114 140 125 74 279 182 148 190 300 140 236 258 238 227 138 236 221 199 191 200 182
42 231 158 151 150 171 187 199 183 211 175 161 163 173 184 184 190 190 193 215 189 186 206 159 107 74 102 220 171 119 199 210 159 185 181 269 256 199 191 209 201 198 190 189 164
137 340 166 146 155 190 199 189 163 184 214 169 180 168 177 179 188 190 208 197 186 171 189 188 101 160 192 79 235 216 217 194 175 238 223 170 257 139 88 57 58 167 146 152 161
124 178 274 158 167 188 164 200 214 191 206 169 193 234 164 175 187 211 190 212 158 179 177 170 182 82 0 305 194 221 226 233 244 61 206 152 261 126 101 115 116 156 157 144 137
86 147 277 255 183 173 174 184 196 202 187 185 178 210 172 184 203 194 191 73 174 180 124 154 127 202 209 207 136 200 199 221 226 202 238 224 252 222 188 187 193 177 163 164 177
213 140 343 164 189 183 173 179 184 181 210 184 208 209 173 190 193 196 191 78 21 57 122 141 193 183 242 150 107 194 199 201 210 229 210 239 234 254 189 201 201 183 168 183 191
2 57 37 301 142 186 181 189 197 186 168 198 197 193 189 197 190 183 173 141 170 116 175 132 216 177 264 222 167 209 218 212 211 224 228 246 246 247 227 210 192 185 176 191 193
97 23 139 341 160 172 188 180 197 184 197 190 198 190 207 209 178 175 193 154 156 157 170 162 129 114 253 138 86 320 231 198 224 226 215 226 239 231 250 221 204 188 184 197 183